User: anonymous   Login
Location: Unspecified
(0.0000°N, 0.0000°E)
Time: 22:01:30
(UTC+00:00)
Language:

Vanguard 3 - Orbit

View from above orbital plane
View from above orbital plane
View from above satellite
View from above satellite

Ground track
Ground track

The orbit data is extracted from the following two-line orbital elements,

1 00020U 59007A   16274.48168910  .00000819  00000-0  32015-3 0  9992
2 00020  33.3575 331.5691 1668784 275.4768  65.8552 11.55296611 73746
Epoch (UTC): 30 September 2016 11:33:37
Eccentricity: 0.1668784
inclination: 33.3575°
perigee height: 508 km
apogee height: 3267 km
right ascension of ascending node: 331.5691°
argument of perigee: 275.4768°
revolutions per day: 11.55296611
mean anomaly at epoch: 65.8552°
orbit number at epoch: 7374

The dashed part of the orbit path shows where the satellite is in the earth's shadow,  

DLR